Regional Weather Roundup
Issued by NWS

Home | Current Version | Previous Version | Graphics & Text | Print | Product List | Glossary On
Versions: 1 2 3 4 5 6 7 8 9 10 11 12 13 14 15 16 17 18 19 20 21 22 23 24 25 26 27 28 29 30 31 32 33 34 35 36 37 38 39 40 41 42 43 44 45 46 47 48 49 50
000
ASUS43 KLMK 292110
RWRKY
KENTUCKY REGIONAL WEATHER ROUNDUP
NATIONAL WEATHER SERVICE LOUISVILLE KY
500 PM EDT FRI APR 29 2016

NOTE "FAIR" INDICATES FEW OR NO CLOUDS BELOW 12,000 FEET
WITH NO SIGNIFICANT WEATHER AND/OR OBSTRUCTIONS TO VISIBILITY.

KYZ001>023-026-027-061>063-070>075-292200-
WESTERN AND SOUTH CENTRAL KENTUCKY

CITY           SKY/WX    TMP DP  RH WIND       PRES   REMARKS
PADUCAH        TSTM      61  58  90 E8        29.98F
HENDERSON      CLOUDY    66  48  52 NE5       30.01F
OWENSBORO      CLOUDY    69  51  52 VRB5      30.03F
HOPKINSVILLE   DRIZZLE   64  61  88 NW7       30.03S
BOWLING GREEN  CLOUDY    73  57  57 CALM      30.02S
GLASGOW        CLOUDY    72  54  53 CALM      30.01F
$$

KYZ024-025-028>034-038-045-046-053-292200-
NORTH CENTRAL KENTUCKY

CITY           SKY/WX    TMP DP  RH WIND       PRES   REMARKS
LOUISVILLE/SDF PTSUNNY   72  48  42 W6        30.01F
LOUISVILLE/LOU CLOUDY    70  47  43 N5        30.01F
FORT KNOX      CLOUDY    70  51  51 W6        30.01F
$$

KYZ035>037-039>044-047>052-055>060-089>105-292200-
NORTHEAST KENTUCKY

CITY           SKY/WX    TMP DP  RH WIND       PRES   REMARKS
LEXINGTON      CLOUDY    70  49  47 N7        30.01F
COVINGTON      CLOUDY    66  47  50 W9        30.02S
FRANKFORT      CLOUDY    70  47  43 NW5       30.00F
$$

KYZ054-064>069-076>088-106>120-292200-
SOUTHEAST KENTUCKY

CITY           SKY/WX    TMP DP  RH WIND       PRES   REMARKS
JACKSON        PTSUNNY   75  51  43 CALM      29.99F
LONDON         PTSUNNY   77  47  34 VRB6      30.00S
SOMERSET       CLOUDY    75  46  35 W7        30.01F
MIDDLESBORO    PTSUNNY   79  50  36 N3        30.00R
MONTICELLO     CLOUDY    76  52  43 W7        30.02F
$$





USA.gov is the U.S. government's official web portal to all federal, state and local government web resources and services.